Regional Weather Roundup
Issued by NWS

Home | Current Version | Previous Version | Text Only | Print | Product List | Glossary On
Versions: 1 2 3 4 5 6 7 8 9 10 11 12 13 14 15 16 17 18 19 20 21 22 23 24 25 26 27 28 29 30 31 32 33 34 35 36 37 38 39 40 41 42 43 44 45 46 47 48 49 50
000
ASUS44 KJAN 060110
RWRMS

MISSISSIPPI HOURLY WEATHER ROUNDUP
NATIONAL WEATHER SERVICE JACKSON MS
800 PM CDT SUN JUL 05 2015

NOTE: "FAIR: INDICATES FEW OR NO CLOUDS BELOW 12,000 FEET WITH NO
SIGNIFICANT WEATHER AND/OR OBSTRUCTIONS TO VISIBILITY.

MSZ001>002-007>008-010>013-018>021-025>028-034>036-060200-
NORTHWEST MISSISSIPPI

CITY           SKY/WX    TMP DP  RH WIND       PRES   REMARKS
CLARKSDALE     FAIR      75  75 100 SE6       30.08F
CLEVELAND      MOCLDY    73  72  97 CALM      30.09R
GREENWOOD      CLOUDY    75  68  78 S9        30.10R
GREENVILLE     PTCLDY    73  69  87 S9        30.08R
OLIVE BRANCH   PTCLDY    75  75 100 S8        30.07R
TUNICA         MOCLDY    77  72  83 S7        30.07F
$$

MSZ003>006-009-014>017-022>024-029>033-037>039-060200-
NORTHEAST MISSISSIPPI

CITY           SKY/WX    TMP DP  RH WIND       PRES   REMARKS
COLUMBUS AFB   MOCLDY    77  71  82 SW6       30.08R
CORINTH        FAIR      79  70  73 SW6       30.07R
GOLDN TRIANGLE CLEAR     77  68  73 CALM      30.09R
STARKVILLE     FAIR      73  70  88 CALM      30.10R
TUPELO         MOCLDY    78  72  81 SW3       30.08R
$$

MSZ040-058-060200-
CENTRAL MISSISSIPPI

CITY           SKY/WX    TMP DP  RH WIND       PRES   REMARKS
JACKSON INTL   CLOUDY    74  69  85 S9        30.10F
JACKSON HAWKNS CLOUDY    73  70  90 S6        30.11F
MERIDIAN KEY   CLOUDY    70  67  90 SW7       30.14R
MERIDIAN NAS   CLOUDY    71  68  90 SW6       30.13R
VICKSBURG      CLOUDY    73  69  87 S8        30.10F
$$

MSZ059>079-060200-
SOUTH MISSISSIPPI

CITY           SKY/WX    TMP DP  RH WIND       PRES   REMARKS
BROOKHAVEN       N/A     72  70  94 CALM      30.14F
HATTIESBURG    CLOUDY    72  68  87 W5        30.17F
MCCOMB         LGT RAIN  70  67  90 CALM      30.12F
NATCHEZ        NOT AVBL
PINE BELT      CLOUDY    70  66  88 SW8       30.16F
$$

MSZ080>082-060200-
COASTAL MISSISSIPPI

CITY           SKY/WX    TMP DP  RH WIND       PRES   REMARKS
BAY ST LOUIS   TSTM      70  64  83 MISG      30.20F
BILOXI         LGT RAIN  71  69  95 W8        30.17F
PASCAGOULA     LGT RAIN  70  69  97 W6        30.16R
GULFPORT       RAIN      71  68  90 W8        30.18F
$$


USA.gov is the U.S. government's official web portal to all federal, state and local government web resources and services.